This is the latest recevied weather packets stored in our database for station/object N0HEQ. If no packets are shown the sender has not sent any weather packets the latest 10 day(s).
| Time | Temp. | Humidity | Pressure | Rain* | Wind** | Luminosity | Snow |
|---|---|---|---|---|---|---|---|
| 1777937732 | 16.11° C | 36% | 1011.6 hPa | 0 mm | - | 45 W/m² | - |
| 1777937429 | 16.67° C | 36% | 1011.5 hPa | 0 mm | - | 35 W/m² | - |
| 1777937126 | 16.67° C | 35% | 1011.5 hPa | 0 mm | - | 48 W/m² | - |
| 1777936824 | 16.67° C | 35% | 1011.1 hPa | 0 mm | - | 45 W/m² | - |
| 1777936520 | 16.67° C | 35% | 1011.5 hPa | 0 mm | - | 28 W/m² | - |
| 1777936216 | 16.67° C | 35% | 1011.5 hPa | 0 mm | - | 34 W/m² | - |
| 1777935913 | 17.22° C | 34% | 1011.1 hPa | 0 mm | - | 32 W/m² | - |
| 1777935612 | 17.22° C | 33% | 1011.1 hPa | 0 mm | - | 44 W/m² | - |
| 1777935308 | 17.78° C | 32% | 1011 hPa | 0 mm | - | 45 W/m² | - |
| 1777935005 | 17.78° C | 32% | 1010.9 hPa | 0 mm | - | 57 W/m² | - |
| 1777934702 | 17.78° C | 32% | 1010.9 hPa | 0 mm | - | 59 W/m² | - |
| 1777934399 | 17.78° C | 31% | 1010.8 hPa | 0 mm | - | 60 W/m² | - |
| 1777934095 | 17.78° C | 31% | 1011.1 hPa | 0 mm | - | 63 W/m² | - |
| 1777933791 | 17.78° C | 31% | 1010.6 hPa | 0 mm | - | 76 W/m² | - |
| 1777933489 | 18.33° C | 30% | 1010.7 hPa | 0 mm | - | 87 W/m² | - |
| 1777933186 | 18.33° C | 30% | 1010.8 hPa | 0 mm | - | 80 W/m² | - |
| 1777932883 | 18.33° C | 30% | 1010.8 hPa | 0 mm | - | 100 W/m² | - |
| 1777932580 | 18.89° C | 29% | 1010.6 hPa | 0 mm | - | 99 W/m² | - |
| 1777932276 | 19.44° C | 25% | 1010.9 hPa | 0 mm | - | 85 W/m² | - |
| 1777931974 | 19.44° C | 25% | 1010.3 hPa | 0 mm | - | 79 W/m² | - |
| 1777931670 | 19.44° C | 25% | 1010.2 hPa | 0 mm | - | 77 W/m² | - |
| 1777931367 | 19.44° C | 24% | 1010.1 hPa | 0 mm | - | 70 W/m² | - |
| 1777931063 | 20° C | 24% | 1010.3 hPa | 0 mm | - | 108 W/m² | - |
| 1777930760 | 20.56° C | 24% | 1010.4 hPa | 0 mm | - | 150 W/m² | - |
| 1777930456 | 21.11° C | 24% | 1010.4 hPa | 0 mm | - | 191 W/m² | - |
* Rain latest hour (hover to see other rain measurements)
** Current wind speed in m/s (hover to see current wind gust speed)